Weather History for KPHF - May, 2014

Change the Weather History Date:

Friday, May 16, 2014

  Actual Average Record
Temperature  
Mean Temperature 72 °F -  
Max Temperature 79 °F 77 °F 91 °F (1998)
Min Temperature 66 °F 55 °F 42 °F (1973)
Cooling Degree Days 7    
Growing Degree Days 22 (Base 50)    
Moisture  
Dew Point 64 °F    
Average Humidity 75    
Maximum Humidity 88    
Minimum Humidity 52    
Precipitation  
Precipitation 1.61 in - - ()
Sea Level Pressure  
Sea Level Pressure 29.86 in    
Wind  
Wind Speed 9 mph (South)    
Max Wind Speed 16 mph    
Max Gust Speed 25 mph    
Visibility 8 miles    
Events Rain    
Averages and records for this station are not official NWS values.
T = Trace of Precipitation, MM = Missing Value Source: NWS Daily Summary

Daily Weather History Graph

Daily Weather History Graph

Search for Another Location

Airport or City:

Trip Planner

Search our weather history database for the weather conditions in past years. The results will help you decide how hot, cold, wet, or windy it might be!

Date:

Astronomy

May. 16, 2014 Rise Set
Actual Time 5:56 AM EDT 8:08 PM EDT
Civil Twilight 5:27 AM EDT 8:37 PM EDT
Nautical Twilight 4:52 AM EDT 9:13 PM EDT
Astronomical Twilight 4:13 AM EDT 9:52 PM EDT
Moon 10:13 PM EDT (5/16) 7:36 AM EDT (5/16)
Length of Visible Light 15h 09m
Length of Day
14h 11m
Waning Gibbous, 95% of the Moon is Illuminated
May 16
Waning Gibbous
May 21
Last Quarter
May 28
New
Jun 5
First Quarter
Jun 13
Full

Hourly Weather History & Observations

Time (EDT) Temp. Dew Point Humidity Pressure Visibility Wind Dir Wind Speed Gust Speed Precip Events Conditions
12:54 AM 78.1 °F 68.0 °F 71% 29.92 in 10.0 mi SSE 11.5 mph 18.4 mph N/A   Overcast
1:25 AM 78.1 °F 68.0 °F 71% 29.90 in 10.0 mi SSE 12.7 mph - N/A   Mostly Cloudy
1:54 AM 78.1 °F 68.0 °F 71% 29.89 in 10.0 mi SSE 12.7 mph - N/A   Mostly Cloudy
2:54 AM 77.0 °F 69.1 °F 76% 29.86 in 8.0 mi SSE 11.5 mph - 0.01 in Rain Light Rain
3:54 AM 75.9 °F 69.1 °F 79% 29.85 in 7.0 mi SSE 13.8 mph - 0.02 in Rain Light Rain
4:54 AM 75.0 °F 69.1 °F 82% 29.84 in 7.0 mi SSE 12.7 mph - 0.04 in Rain Light Rain
5:54 AM 75.0 °F 69.1 °F 82% 29.83 in 2.5 mi SSE 10.4 mph - 0.18 in Rain Heavy Rain
6:09 AM 75.0 °F 70.0 °F 84% 29.82 in 3.0 mi SE 9.2 mph - 0.08 in Rain Rain
6:54 AM 75.0 °F 70.0 °F 84% 29.82 in 3.0 mi SE 5.8 mph - 0.26 in Rain Rain
7:03 AM 75.0 °F 70.0 °F 84% 29.82 in 1.8 mi SE 11.5 mph - 0.18 in Rain Heavy Rain
7:13 AM 73.9 °F 70.0 °F 87% 29.83 in 1.0 mi Variable 4.6 mph - 0.46 in Rain Heavy Rain
7:38 AM 75.0 °F 70.0 °F 84% 29.81 in 2.5 mi South 9.2 mph 25.3 mph 0.94 in Rain Rain
7:46 AM 73.9 °F 69.1 °F 85% 29.81 in 4.0 mi South 15.0 mph - 0.97 in Rain Rain
7:54 AM 73.9 °F 68.0 °F 82% 29.82 in 5.0 mi South 11.5 mph - 0.99 in Rain Rain
8:39 AM 73.0 °F 68.0 °F 84% 29.82 in 7.0 mi South 5.8 mph - 0.10 in Rain Light Rain
8:50 AM 71.6 °F 68.0 °F 88% 29.82 in 8.0 mi South 8.1 mph - 0.10 in Rain Light Rain
8:54 AM 72.0 °F 68.0 °F 87% 29.83 in 9.0 mi SSE 8.1 mph - 0.10 in Rain Light Rain
9:02 AM 72.0 °F 68.0 °F 87% 29.83 in 9.0 mi South 6.9 mph - 0.01 in Rain Light Rain
9:17 AM 73.0 °F 68.0 °F 84% 29.83 in 10.0 mi South 6.9 mph - 0.01 in   Overcast
9:54 AM 73.0 °F 68.0 °F 84% 29.83 in 6.0 mi SW 4.6 mph - 0.01 in Rain Light Rain
10:01 AM 73.0 °F 68.0 °F 84% 29.82 in 9.0 mi SW 6.9 mph - 0.00 in Rain Light Rain
10:49 AM 66.2 °F 60.8 °F 83% 29.84 in 4.0 mi NNW 15.0 mph 23.0 mph 0.00 in   Haze
10:54 AM 66.0 °F 61.0 °F 84% 29.84 in 3.0 mi NNW 16.1 mph 23.0 mph 0.00 in   Haze
11:54 AM 66.0 °F 60.1 °F 81% 29.86 in 10.0 mi North 11.5 mph - N/A   Overcast
12:54 PM 66.9 °F 60.1 °F 79% 29.87 in 10.0 mi NW 11.5 mph - N/A   Overcast
1:54 PM 68.0 °F 59.0 °F 73% 29.88 in 10.0 mi NNW 3.5 mph - N/A   Overcast
2:01 PM 69.1 °F 59.0 °F 70% 29.88 in 10.0 mi WNW 8.1 mph - N/A   Overcast
2:11 PM 69.1 °F 59.0 °F 70% 29.88 in 10.0 mi NW 8.1 mph - N/A   Overcast
2:54 PM 69.1 °F 59.0 °F 70% 29.87 in 10.0 mi North 4.6 mph - N/A   Overcast
3:54 PM 71.1 °F 60.1 °F 68% 29.86 in 10.0 mi Calm Calm - N/A   Mostly Cloudy
4:08 PM 73.0 °F 60.1 °F 64% 29.85 in 10.0 mi Calm Calm - N/A   Mostly Cloudy
4:17 PM 73.9 °F 61.0 °F 64% 29.85 in 10.0 mi NNE 4.6 mph - N/A   Mostly Cloudy
4:37 PM 73.9 °F 60.1 °F 62% 29.85 in 10.0 mi NE 5.8 mph - N/A   Scattered Clouds
4:54 PM 73.9 °F 59.0 °F 59% 29.85 in 10.0 mi Calm Calm - N/A   Clear
5:54 PM 73.9 °F 59.0 °F 59% 29.84 in 10.0 mi ENE 3.5 mph - N/A   Partly Cloudy
6:54 PM 72.0 °F 61.0 °F 68% 29.86 in 10.0 mi ENE 5.8 mph - N/A   Clear
7:54 PM 69.1 °F 60.1 °F 73% 29.88 in 10.0 mi ESE 5.8 mph - N/A   Clear
8:54 PM 66.9 °F 61.0 °F 81% 29.91 in 10.0 mi Calm Calm - N/A   Scattered Clouds
9:54 PM 70.0 °F 52.0 °F 53% 29.94 in 10.0 mi West 12.7 mph - N/A   Scattered Clouds
10:54 PM 66.9 °F 50.0 °F 54% 29.95 in 10.0 mi West 9.2 mph - N/A   Clear
11:54 PM 66.0 °F 48.0 °F 52% 29.95 in 10.0 mi West 6.9 mph - N/A   Clear